GLOBALSTAR M001 1 25162U 98008A 26071.76403522 -.00000049 00000+0 36259-3 0 9997 2 25162 52.0021 271.4986 0002351 98.5530 343.4269 12.38229762276981 GLOBALSTAR M004 1 25163U 98008B 26071.65195025 -.00000071 00000+0 18117-3 0 9990 2 25163 52.0022 315.1201 0003316 152.3522 225.9733 12.63416584295621 GLOBALSTAR M002 1 25164U 98008C 26071.74966751 -.00000074 00000+0 58394-4 0 9998 2 25164 52.0014 286.8279 0000496 289.7700 70.3067 11.61515254215277 GLOBALSTAR M003 1 25165U 98008D 26071.65535671 -.00000196 00000+0 -11353-2 0 9990 2 25165 51.9845 144.9188 0008698 112.1655 54.1154 12.12023749265778 GLOBALSTAR M014 1 25306U 98023A 26071.75753677 -.00000069 00000+0 16227-3 0 9997 2 25306 51.9826 204.3795 0001790 125.5512 26.5938 11.65485050222483 GLOBALSTAR M006 1 25307U 98023B 26071.79570431 -.00000048 00000+0 57134-3 0 9996 2 25307 51.9925 266.8005 0002386 223.5128 192.3416 11.58177925247958 GLOBALSTAR M015 1 25308U 98023C 26071.79845112 -.00000047 00000+0 60043-3 0 9990 2 25308 51.9859 17.5730 0012489 193.3048 183.1616 11.48861038224950 GLOBALSTAR M008 1 25309U 98023D 26071.55481897 -.00000108 00000+0 -91272-4 0 9999 2 25309 51.9959 139.9786 0002557 31.4458 107.8077 12.36081419271034 GLOBALSTAR M023 1 25621U 99004A 26071.65021102 -.00000059 00000+0 24685-3 0 9993 2 25621 52.0123 315.9574 0009943 4.2997 13.1550 12.62518749249646 GLOBALSTAR M040 1 25622U 99004B 26071.73320848 -.00000080 00000+0 13458-3 0 9992 2 25622 51.9935 320.2541 0000109 292.7761 102.3384 12.62029595249166 GLOBALSTAR M036 1 25623U 99004C 26071.67398851 -.00000040 00000+0 62786-3 0 9999 2 25623 51.9949 252.6326 0010235 202.0937 237.4500 11.86620842210852 GLOBALSTAR M038 1 25624U 99004D 26071.83596348 -.00000075 00000+0 16503-3 0 9993 2 25624 52.0007 17.8812 0001316 256.7144 120.2057 12.32542124235500 GLOBALSTAR M022 1 25649U 99012A 26071.72756469 -.00000024 00000+0 75928-3 0 9999 2 25649 52.0033 280.8810 0002540 0.8653 76.0591 12.02510982208683 GLOBALSTAR M041 1 25650U 99012B 26071.58902803 -.00000113 00000+0 -35084-3 0 9999 2 25650 52.0014 170.8889 0002004 129.2451 230.8563 11.96683982210411 GLOBALSTAR M046 1 25651U 99012C 26071.80056292 -.00000108 00000+0 -20896-3 0 9996 2 25651 52.0041 221.0089 0002593 79.1838 68.3350 12.09418798216160 GLOBALSTAR M037 1 25652U 99012D 26071.43165417 -.00000093 00000+0 58818-4 0 9994 2 25652 51.9994 87.1363 0002159 65.8701 81.7505 12.62462475245153 GLOBALSTAR M045 1 25676U 99019A 26071.84496796 -.00000052 00000+0 36329-3 0 9996 2 25676 51.9953 259.5298 0001054 85.6655 48.0441 12.27074672226374 GLOBALSTAR M019 1 25677U 99019B 26071.85427623 -.00000202 00000+0 -11719-2 0 9994 2 25677 51.9888 48.7739 0001479 132.7095 231.8335 12.13885317217772 GLOBALSTAR M044 1 25678U 99019C 26071.81166675 -.00000070 00000+0 19147-3 0 9994 2 25678 51.9994 33.8559 0006004 195.4103 169.0245 11.90262785203310 GLOBALSTAR M042 1 25679U 99019D 26071.26964870 -.00000084 00000+0 76109-4 0 9994 2 25679 52.0046 14.1390 0003056 123.7564 27.8820 12.22094485218036 GLOBALSTAR M025 1 25770U 99031A 26071.69227693 -.00000048 00000+0 60075-3 0 9996 2 25770 51.9795 257.2592 0001733 199.3721 242.9280 11.22560806511866 GLOBALSTAR M049 1 25771U 99031B 26071.64473763 -.00000016 00000+0 17260-2 0 9995 2 25771 51.9889 305.6245 0003407 104.3863 255.7312 11.12121899147291 GLOBALSTAR M047 1 25772U 99031C 26071.69227745 -.00000044 00000+0 70441-3 0 9990 2 25772 51.9818 276.8328 0016462 7.5511 352.5540 11.31932752501511 GLOBALSTAR M052 1 25773U 99031D 26071.38067306 -.00000102 00000+0 -12231-2 0 9990 2 25773 51.9878 51.1185 0002425 256.5016 274.2242 11.15064098508420 GLOBALSTAR M035 1 25851U 99037A 26071.54790926 -.00000059 00000+0 17106-3 0 9999 2 25851 51.9944 176.4909 0013849 60.4466 29.0951 11.04541337125915 GLOBALSTAR M032 1 25852U 99037B 26071.74812054 -.00000018 00000+0 15538-2 0 9990 2 25852 51.9999 342.7176 0012226 259.8486 100.0935 11.19069059164854 GLOBALSTAR M051 1 25853U 99037C 26071.54375779 -.00000074 00000+0 -49171-4 0 9992 2 25853 51.9777 113.5139 0000582 141.8402 218.2450 11.42200567163054 GLOBALSTAR M030 1 25854U 99037D 26071.77318926 -.00000049 00000+0 54070-3 0 9993 2 25854 51.9863 261.9857 0004098 145.8447 214.2634 11.55104146181088 GLOBALSTAR M048 1 25872U 99041A 26071.39902784 -.00000071 00000+0 -19606-4 0 9990 2 25872 51.9375 59.2610 0013217 289.4467 219.2926 11.33862644155407 GLOBALSTAR M026 1 25873U 99041B 26071.73394699 -.00000038 00000+0 96242-3 0 9991 2 25873 52.0008 291.2071 0002127 16.0671 57.4354 11.06843197178225 GLOBALSTAR M043 1 25874U 99041C 26071.62116278 -.00000067 00000+0 25249-4 0 9997 2 25874 51.9397 177.0748 0013495 52.6432 52.7178 11.25697995153104 GLOBALSTAR M028 1 25875U 99041D 26071.53672831 -.00000084 00000+0 10371-3 0 9998 2 25875 51.9614 112.8833 0063048 294.1887 65.2392 12.50597498223757 GLOBALSTAR M024 1 25883U 99043A 26071.43129457 -.00000058 00000+0 24644-3 0 9998 2 25883 52.0012 135.3676 0002061 167.6732 281.8029 11.10172726144658 GLOBALSTAR M027 1 25884U 99043B 26071.77480409 -.00000038 00000+0 97119-3 0 9998 2 25884 52.0187 220.1831 0021880 66.7897 293.5198 11.04373985170917 GLOBALSTAR M054 1 25885U 99043C 26071.38065961 -.00000061 00000+0 25816-3 0 9999 2 25885 52.0149 303.3544 0004006 283.6970 247.8813 11.39224861149619 GLOBALSTAR M053 1 25886U 99043D 26071.75009193 -.00000042 00000+0 77814-3 0 9990 2 25886 51.9966 264.4642 0003761 162.3992 279.4631 11.27671133149743 GLOBALSTAR M058 1 25907U 99049A 26071.54091472 -.00000075 00000+0 12667-3 0 9999 2 25907 51.9922 112.5916 0002288 77.5258 282.5833 11.93208474573579 GLOBALSTAR M050 1 25908U 99049B 26071.60852542 -.00000157 00000+0 -77581-3 0 9998 2 25908 51.9977 100.0318 0009172 205.1308 301.0512 12.07465936180616 GLOBALSTAR M033 1 25909U 99049C 26071.68455827 -.00000133 00000+0 -39302-3 0 9995 2 25909 51.9928 313.1148 0015168 95.7289 264.5288 12.20303561568527 GLOBALSTAR M055 1 25910U 99049D 26071.38431861 -.00000063 00000+0 26420-3 0 9994 2 25910 52.0032 311.6459 0006734 335.7597 24.2937 12.29441780201276 GLOBALSTAR M057 1 25943U 99058A 26071.67918104 -.00000050 00000+0 38646-3 0 9991 2 25943 51.9994 306.2194 0002054 190.2966 169.7842 12.24835410199838 GLOBALSTAR M059 1 25944U 99058B 26071.74209097 -.00000109 00000+0 -27869-3 0 9995 2 25944 52.0010 200.6342 0001181 130.7326 17.3912 11.99994457606287 GLOBALSTAR M056 1 25945U 99058C 26071.63673572 -.00000003 00000+0 98580-3 0 9997 2 25945 51.9959 195.9998 0000996 42.5037 330.8261 12.04786387194980 GLOBALSTAR M031 1 25946U 99058D 26071.47610723 -.00000107 00000+0 -17201-3 0 9996 2 25946 51.9963 72.6923 0001326 15.2515 151.8764 12.16050885197185 GLOBALSTAR M039 1 25961U 99062A 26071.66325498 -.00000104 00000+0 43748-6 0 9995 2 25961 51.9839 170.9761 0002576 207.7352 152.3377 12.62342974214125 GLOBALSTAR M034 1 25962U 99062B 26071.84155381 -.00000078 00000+0 46682-4 0 9996 2 25962 51.9897 33.0320 0013978 188.1857 185.8247 11.79455988170091 GLOBALSTAR M029 1 25963U 99062C 26071.52458848 -.00000076 00000+0 12608-3 0 9994 2 25963 51.9793 89.0282 0002289 280.1476 248.2677 11.99909033201338 GLOBALSTAR M061 1 25964U 99062D 26071.71238602 -.00000108 00000+0 -46095-3 0 9994 2 25964 51.9781 220.9715 0006855 110.5157 348.4280 11.76778033152795 GLOBALSTAR M063 1 26081U 00008A 26071.56824860 -.00000082 00000+0 97297-5 0 9999 2 26081 51.9939 124.7448 0004989 110.8402 37.7718 11.86181413189422 GLOBALSTAR M062 1 26082U 00008B 26071.82745037 -.00000041 00000+0 40724-3 0 9993 2 26082 51.9874 25.7775 0007344 329.5714 46.5997 12.43481723530043 GLOBALSTAR M060 1 26083U 00008C 26071.59188663 -.00000154 00000+0 -63078-3 0 9997 2 26083 52.0049 24.4541 0003086 318.9019 211.7954 12.17674936185064 GLOBALSTAR M064 1 26084U 00008D 26071.67243473 -.00000072 00000+0 16465-3 0 9994 2 26084 52.0017 220.1339 0001568 179.0900 180.9935 11.88542774199026 GLOBALSTAR M065 1 31571U 07020A 26071.65897620 -.00000108 00000+0 -24597-4 0 9996 2 31571 51.9880 129.1122 0010095 180.7589 353.2583 12.62021081867307 GLOBALSTAR M069 1 31573U 07020C 26071.64540957 -.00000102 00000+0 -86749-4 0 9996 2 31573 52.0028 165.3772 0001123 308.8394 199.2568 12.23468799866989 GLOBALSTAR M072 1 31574U 07020D 26071.83583995 -.00000073 00000+0 15623-3 0 9995 2 31574 51.9968 356.7600 0001487 106.8201 287.3556 11.91656036863499 GLOBALSTAR M071 1 31576U 07020F 26071.85615656 -.00000002 00000+0 88382-3 0 9993 2 31576 52.0051 197.9709 0000125 197.2549 339.4013 12.18266733527684 GLOBALSTAR M067 1 32263U 07048A 26071.67766957 -.00000075 00000+0 16760-3 0 9999 2 32263 51.9753 330.2972 0000964 155.9101 223.3788 12.40685184842810 GLOBALSTAR M070 1 32264U 07048B 26071.34154683 -.00000090 00000+0 78777-4 0 9995 2 32264 51.9771 31.5833 0000613 58.4279 105.9105 12.62331487847532 GLOBALSTAR M066 1 32265U 07048C 26071.71928512 -.00000089 00000+0 43340-4 0 9993 2 32265 51.9617 334.8469 0004341 192.2490 185.3368 12.30386778848352 GLOBALSTAR M068 1 32266U 07048D 26071.71913939 -.00000083 00000+0 11840-3 0 9994 2 32266 51.9877 203.6670 0001164 52.5421 86.9638 12.62842223851481 GLOBALSTAR M079 1 37188U 10054A 26071.83588471 -.00000097 00000+0 39602-4 0 9997 2 37188 52.0055 41.9753 0000539 108.5355 256.1787 12.62263915710381 GLOBALSTAR M074 1 37189U 10054B 26071.86481142 -.00000101 00000+0 13785-4 0 9998 2 37189 52.0030 41.1684 0000256 77.6970 297.8790 12.62266358710992 GLOBALSTAR M076 1 37190U 10054C 26071.36961683 -.00000094 00000+0 56529-4 0 9992 2 37190 52.0044 42.8703 0000336 130.3648 34.0235 12.62270566710640 GLOBALSTAR M077 1 37191U 10054D 26071.42052651 -.00000096 00000+0 -31970-3 0 9991 2 37191 51.9988 64.9907 0000872 148.0144 21.0132 11.68156515709832 GLOBALSTAR M075 1 37192U 10054E 26071.45814718 -.00000105 00000+0 -68458-5 0 9999 2 37192 51.9936 84.7098 0000368 98.5924 48.4602 12.62264982709728 GLOBALSTAR M073 1 37193U 10054F 26071.82962897 -.00000096 00000+0 44758-4 0 9997 2 37193 52.0092 357.6059 0000586 96.8608 298.0933 12.62269837711766 GLOBALSTAR M083 1 37739U 11033A 26071.68405227 -.00000090 00000+0 74751-4 0 9994 2 37739 51.9865 306.4124 0000854 97.4817 297.2130 12.62267637680761 GLOBALSTAR M088 1 37740U 11033B 26071.84493580 -.00000095 00000+0 49764-4 0 9994 2 37740 52.0203 212.1138 0000758 104.5352 60.2412 12.62262262676323 GLOBALSTAR M091 1 37741U 11033C 26071.69594147 -.00000106 00000+0 -12399-4 0 9997 2 37741 51.9992 175.6756 0000806 106.7898 40.9898 12.62270346677099 GLOBALSTAR M085 1 37742U 11033D 26071.35112072 -.00000102 00000+0 86569-5 0 9990 2 37742 52.0114 127.9329 0000707 110.7504 329.6392 12.62269742677569 GLOBALSTAR M081 1 37743U 11033E 26071.55057705 -.00000096 00000+0 42827-4 0 9994 2 37743 51.9949 129.8722 0000561 128.8162 18.2956 12.62262941677730 GLOBALSTAR M089 1 37744U 11033F 26071.51540409 -.00000091 00000+0 71031-4 0 9993 2 37744 51.9921 84.1553 0000107 164.6205 2.6543 12.62264847678577 GLOBALSTAR M084 1 38040U 11080A 26071.65621582 -.00000097 00000+0 40246-4 0 9992 2 38040 52.0022 311.1601 0000478 87.1372 300.1687 12.62265409656579 GLOBALSTAR M080 1 38041U 11080B 26071.70858243 -.00000090 00000+0 75838-4 0 9993 2 38041 52.0074 312.6865 0001148 71.1968 323.6854 12.62267154656704 GLOBALSTAR M082 1 38042U 11080C 26071.73396005 -.00000073 00000+0 17137-3 0 9998 2 38042 52.0066 268.0989 0001148 84.2551 355.9621 12.62268414657419 GLOBALSTAR M092 1 38043U 11080D 26071.77312193 -.00000088 00000+0 89089-4 0 9991 2 38043 52.0115 358.3685 0000522 74.1918 303.9896 12.62264527655877 GLOBALSTAR M090 1 38044U 11080E 26071.68061808 -.00000078 00000+0 14144-3 0 9994 2 38044 52.0108 262.1857 0000949 98.2738 338.4293 12.62271993657526 GLOBALSTAR M086 1 38045U 11080F 26071.70446086 -.00000065 00000+0 21556-3 0 9994 2 38045 51.9888 262.2005 0001167 156.1733 283.7905 12.62284021657470 GLOBALSTAR M097 1 39072U 13005A 26071.63666910 -.00000103 00000+0 58801-5 0 9994 2 39072 52.0042 177.2402 0000838 117.3625 242.7327 12.62265700604719 GLOBALSTAR M093 1 39073U 13005B 26071.45217031 -.00000104 00000+0 82179-6 0 9998 2 39073 52.0096 171.1139 0000969 122.9057 237.1903 12.62263114604642 GLOBALSTAR M094 1 39074U 13005C 26071.21481015 -.00000106 00000+0 -97909-5 0 9997 2 39074 51.9949 86.0508 0000556 117.4766 242.6157 12.62267201606229 GLOBALSTAR M096 1 39075U 13005D 26071.62390370 -.00000100 00000+0 18316-4 0 9993 2 39075 52.0064 133.5313 0000694 116.0755 244.0183 12.62263713605192 GLOBALSTAR M078 1 39076U 13005E 26071.83476637 -.00000091 00000+0 74048-4 0 9991 2 39076 51.9862 217.0302 0001488 77.1024 283.0009 12.62276077603848 GLOBALSTAR M095 1 39077U 13005F 26071.78220400 -.00000112 00000+0 -47927-4 0 9992 2 39077 52.0074 214.6588 0001267 100.7995 259.3014 12.62276202603695 GLOBALSTAR M087 1 52888U 22064A 26071.24131944 -.00000088 00000+0 89269-4 0 9993 2 52888 52.0028 357.6009 0000770 87.1303 272.9652 12.62267010178899